This is the latest recevied weather packets stored in our database for station/object TA5KA. If no packets are shown the sender has not sent any weather packets the latest 10 day(s).
| Time | Temp. | Humidity | Pressure | Rain* | Wind** | Luminosity | Snow |
|---|---|---|---|---|---|---|---|
| 1777679965 | 9.44° C | 93% | 1014 hPa | 0 mm | - | - | - |
| 1777679840 | 9.44° C | 93% | 1014 hPa | 0 mm | - | - | - |
| 1777679364 | 8.89° C | 83% | 1013 hPa | 0 mm | - | - | - |
| 1777679239 | 8.89° C | 83% | 1013 hPa | 0 mm | - | - | - |
| 1777678763 | 8.89° C | 93% | 1014 hPa | 0 mm | - | - | - |
| 1777678637 | 8.89° C | 93% | 1014 hPa | 0 mm | - | - | - |
| 1777678161 | 9.44° C | 87% | 1014 hPa | 0 mm | - | - | - |
| 1777678036 | 9.44° C | 87% | 1014 hPa | 0 mm | - | - | - |
| 1777677560 | 9.44° C | 87% | 1014 hPa | 0 mm | - | - | - |
| 1777677435 | 9.44° C | 87% | 1014 hPa | 0 mm | - | - | - |
| 1777676959 | 9.44° C | 87% | 1014 hPa | 0 mm | - | - | - |
| 1777676833 | 9.44° C | 87% | 1014 hPa | 0 mm | - | - | - |
| 1777676358 | 9.44° C | 87% | 1014 hPa | 0 mm | - | - | - |
| 1777676232 | 9.44° C | 87% | 1014 hPa | 0 mm | - | - | - |
| 1777675757 | 8.89° C | 87% | 1014 hPa | 0 mm | - | - | - |
| 1777675631 | 8.89° C | 87% | 1014 hPa | 0 mm | - | - | - |
| 1777675155 | 8.89° C | 87% | 1014 hPa | 0 mm | - | - | - |
| 1777675029 | 8.89° C | 87% | 1014 hPa | 0 mm | - | - | - |
| 1777674555 | 10.56° C | 82% | 1014 hPa | 0 mm | - | - | - |
| 1777674430 | 10.56° C | 82% | 1014 hPa | 0 mm | - | - | - |
| 1777673953 | 10° C | 87% | 1014 hPa | 0 mm | - | - | - |
| 1777673827 | 10° C | 87% | 1014 hPa | 0 mm | - | - | - |
| 1777673351 | 10° C | 87% | 1014 hPa | 0 mm | - | - | - |
| 1777673226 | 10° C | 87% | 1014 hPa | 0 mm | - | - | - |
| 1777672750 | 10.56° C | 87% | 1014 hPa | 0 mm | - | - | - |
* Rain latest hour (hover to see other rain measurements)
** Current wind speed in m/s (hover to see current wind gust speed)